[[{"header":{"parameterUnit":"m.s-1","parameterCategory":1,"la1":30.2991,"la2":30.254,"lo1":-89.0895,"lo2":-89.0444,"dy":0.0017,"dx":0.0017,"nx":28,"ny":28,"refTime":"2025-04-17T21:00:00:Z","depth":0,"parameterNumber":2,"parameterNumberName":"U-component_of_WINDS"},"data":[0,0,0,0,0,0,0,0,0,0,0,0,0,0,0,0,0,0,0,0,0,0,0,0,0,0,0,0,0,0,0,0,0,0,0,0,0,0,0,0,0,0,0,0,0,0,0,0,0,0,0,0,0,0,0,0,0,0,-3.6798,-3.6799,0,-3.6858,-3.6859,-3.6859,-3.6862,-3.6861,-3.686,-3.686,-3.6918,-3.692,-3.6923,0,0,0,0,0,0,0,0,0,0,0,0,0,-3.6683,-3.6685,-3.6798,-3.6799,-3.68,-3.6858,-3.6859,-3.686,-3.6862,-3.6861,-3.686,-3.6859,-3.6918,-3.692,-3.6923,0,0,0,0,0,0,0,0,0,0,0,0,0,-3.6737,-3.6686,-3.6798,-3.6808,-3.6809,-3.6858,-3.6859,-3.686,-3.6862,-3.6861,-3.686,-3.6859,-3.6917,-3.692,-3.6923,-3.6965,0,0,-3.6933,-3.6935,0,0,0,0,0,0,0,0,-3.6734,-3.6741,-3.6806,-3.6807,-3.6809,-3.6851,-3.684,-3.6895,-3.6862,-3.6842,-3.686,-3.6858,-3.6897,-3.6902,-3.6915,-3.6968,-3.697,-3.6934,-3.6936,-3.6937,-3.6938,0,0,0,0,0,0,0,-3.673,-3.6739,-3.6822,-3.6806,-3.6809,-3.6808,-3.6815,-3.685,-3.6874,-3.6844,-3.6844,-3.6851,-3.6897,-3.6912,-3.6917,-3.6971,-3.6934,-3.6937,-3.6939,-3.694,-3.7061,-3.7062,0,0,0,0,0,0,-3.6725,-3.6735,-3.682,-3.6823,-3.6768,-3.6811,-3.6819,-3.6839,-3.6874,-3.6879,-3.6852,-3.6851,-3.6907,-3.6913,-3.6919,-3.6969,-3.6937,-3.694,-3.6942,-3.706,-3.7061,-3.7063,0,0,0,0,0,0,-3.6722,-3.6732,-3.6817,-3.678,-3.679,-3.6815,-3.6837,-3.6841,-3.6855,-3.6881,-3.6885,-3.6862,-3.6906,-3.6914,-3.6954,-3.6971,-3.6942,-3.6945,-3.7059,-3.706,-3.7062,-3.7071,0,0,0,0,0,0,-3.6719,-3.6731,-3.6748,-3.678,-3.6793,-3.6852,-3.6838,-3.6842,-3.6861,-3.686,-3.6891,-3.6895,-3.6906,-3.6949,-3.6957,-3.6975,-3.6947,-3.7057,-3.7059,-3.7062,-3.7069,-3.7073,-3.7076,0,0,0,0,0,-3.6715,-3.6747,-3.6749,-3.6759,-3.6814,-3.6853,-3.686,-3.6872,-3.6863,-3.6879,-3.6896,-3.6894,-3.6969,-3.6953,-3.6962,-3.6982,-3.7056,-3.7059,-3.7061,-3.7067,-3.7072,-3.7076,0,0,0,0,0,0,-3.6715,-3.6752,-3.6754,-3.6798,-3.6822,-3.6853,-3.6874,-3.6877,-3.6904,-3.6902,-3.6915,-3.6922,-3.6961,-3.6976,-3.6957,-3.7024,-3.7011,-3.7016,-3.7012,-3.7017,-3.702,-3.7015,-3.695,0,0,0,0,0,-3.6721,-3.675,-3.678,-3.6816,-3.6829,-3.685,-3.6867,-3.6875,-3.69,-3.691,-3.693,-3.6954,-3.6983,-3.7001,-3.7029,-3.7072,-3.7078,-3.709,-3.7094,-3.7097,-3.71,-3.7123,-3.7128,-3.7072,-3.7072,-3.7072,0,0,-3.6732,-3.6755,-3.6773,-3.6817,-3.6837,-3.6866,-3.6858,-3.689,-3.6911,-3.6915,-3.6953,-3.6969,-3.6997,-3.7038,-3.7058,-3.7052,-3.7117,-3.71,-3.7102,-3.7104,-3.7126,-3.7132,-3.7136,-3.7074,-3.7073,-3.7073,0,0,-3.6766,-3.6788,-3.682,-3.684,-3.6871,-3.6885,-3.6893,-3.6924,-3.6935,-3.6974,-3.6977,-3.7004,-3.7053,-3.7073,-3.7089,-3.7133,-3.7133,-3.7142,-3.7159,-3.7181,-3.7186,-3.719,-3.7204,-3.7209,-3.7146,-3.7146,-3.7146,0,-3.6775,-3.682,-3.6835,-3.6867,-3.6886,-3.6893,-3.6924,-3.6944,-3.6982,-3.6994,-3.6988,-3.705,-3.707,-3.7116,-3.7126,-3.714,-3.7149,-3.7137,-3.7184,-3.7188,-3.7192,-3.7206,-3.7211,-3.7147,-3.7146,-3.7146,-3.7146,0,-3.6829,-3.6861,-3.6883,-3.6921,-3.6942,-3.6974,-3.6993,-3.7013,-3.702,-3.7034,-3.7074,-3.7098,-3.7131,-3.7143,-3.7149,-3.719,-3.7185,-3.7182,-3.7168,-3.7198,-3.7211,-3.7216,-3.7148,-3.7147,-3.7147,-3.7147,0,0,-3.6863,-3.691,-3.6918,-3.6935,-3.697,-3.6994,-3.7027,-3.706,-3.7076,-3.7103,-3.7129,-3.7172,-3.7169,-3.7188,-3.7197,-3.7217,-3.7249,-3.7211,-3.7212,-3.7215,-3.7294,-3.7295,-3.7301,-3.725,-3.7251,-3.7252,-3.7291,0,-3.69,-3.6957,-3.6972,-3.7021,-3.705,-3.7057,-3.7085,-3.711,-3.7125,-3.7151,-3.7167,-3.7197,-3.7192,-3.7203,-3.7223,-3.7241,-3.7264,-3.7238,-3.7273,-3.7274,-3.7263,-3.7308,-3.7308,-3.7343,-3.7296,-3.7297,-3.7298,0,-3.695,-3.6978,-3.703,-3.7062,-3.7075,-3.7099,-3.7131,-3.7157,-3.7185,-3.7194,-3.7216,-3.7223,-3.7257,-3.7244,-3.7289,-3.7271,-3.7287,-3.7298,-3.73,-3.7301,-3.7286,-3.7308,-3.7355,-3.736,-3.7306,-3.7306,-3.7305,0,-3.6966,-3.7018,-3.7056,-3.707,-3.7109,-3.7126,-3.7143,-3.7171,-3.719,-3.7218,-3.723,-3.7262,-3.7278,-3.7302,-3.7317,-3.7307,-3.7361,-3.735,-3.7369,-3.7368,-3.7377,-3.7376,-3.7425,-3.7391,-3.7391,-3.7391,-3.7391,0,-3.7004,-3.7035,-3.7064,-3.7086,-3.7121,-3.7139,-3.7172,-3.719,-3.7214,-3.724,-3.7249,-3.7273,-3.7293,-3.732,-3.7332,-3.7367,-3.7375,-3.7383,-3.7385,-3.7381,-3.7379,-3.7389,-3.7386,-3.7393,-3.7392,-3.7392,-3.7392,0,-3.7028,-3.7048,-3.7089,-3.7124,-3.7133,-3.7157,-3.7186,-3.7208,-3.7224,-3.7257,-3.7265,-3.7291,-3.7322,-3.7341,-3.7381,-3.739,-3.7428,-3.743,-3.7418,-3.7419,-3.7436,-3.7433,-3.7491,-3.7499,-3.7462,-3.7462,-3.7462,0,-3.7049,-3.7073,-3.711,-3.7129,-3.7146,-3.7176,-3.7195,-3.7214,-3.7235,-3.7269,-3.7287,-3.732,-3.7347,-3.7397,-3.7418,-3.7449,-3.7451,-3.747,-3.7456,-3.745,-3.7449,-3.7447,-3.7449,-3.7471,-3.7471,-3.7471,-3.7472,0,-3.7085,-3.7094,-3.7123,-3.7155,-3.7179,-3.7205,-3.7231,-3.7246,-3.7269,-3.7291,-3.7325,-3.7346,-3.7387,-3.7419,-3.7452,-3.7469,-3.7474,-3.7476,-3.7482,-3.7476,-3.7467,-3.747,-3.7422,-3.7474,-3.7474,-3.7474,-3.7474,-3.7473,-3.7106,-3.7128,-3.7157,-3.7189,-3.7211,-3.7236,-3.7258,-3.7278,-3.7306,-3.7342,-3.7352,-3.7386,-3.7414,-3.7459,-3.7477,-3.7504,-3.7501,-3.7509,-3.7511,-3.7512,-3.7512,-3.7465,-3.7511,-3.751,-3.751,-3.751,-3.751,0,-3.7141,-3.7161,-3.719,-3.7226,-3.7251,-3.7256,-3.7285,-3.7306,-3.7336,-3.7363,-3.7389,-3.7427,-3.7459,-3.7484,-3.7516,-3.7533,-3.7536,-3.754,-3.7538,-3.7542,-3.7514,-3.7505,-3.7537,-3.7537,-3.7537,-3.7537,-3.7537,-3.7537,-3.7161,-3.7197,-3.721,-3.7258,-3.7278,-3.7312,-3.7328,-3.7351,-3.7372,-3.7414,-3.7441,-3.7457,-3.7483,-3.7518,-3.7547,-3.7553,-3.7564,-3.7568,-3.7574,-3.7547,-3.7544,-3.7541,-3.7532,-3.757,-3.757,-3.76,-3.76,-3.76]},{"header":{"parameterUnit":"m.s-1","parameterCategory":1,"la1":30.2991,"la2":30.254,"lo1":-89.0895,"lo2":-89.0444,"dy":0.0017,"dx":0.0017,"nx":28,"ny":28,"refTime":"2025-04-17T21:00:00:Z","depth":0,"parameterNumber":3,"parameterNumberName":"V-component_of_WINDS"},"data":[0,0,0,0,0,0,0,0,0,0,0,0,0,0,0,0,0,0,0,0,0,0,0,0,0,0,0,0,0,0,0,0,0,0,0,0,0,0,0,0,0,0,0,0,0,0,0,0,0,0,0,0,0,0,0,0,0,0,4.0428,4.0429,0,4.0501,4.0502,4.0503,4.0518,4.0518,4.0517,4.0517,4.0586,4.0588,4.059,0,0,0,0,0,0,0,0,0,0,0,0,0,4.0299,4.0301,4.0428,4.0429,4.043,4.0501,4.0502,4.0503,4.0519,4.0518,4.0517,4.0517,4.0585,4.0588,4.0591,0,0,0,0,0,0,0,0,0,0,0,0,0,4.0362,4.0302,4.0428,4.0447,4.0449,4.0501,4.0502,4.0503,4.0519,4.0518,4.0517,4.0516,4.0584,4.0588,4.0591,4.0628,0,0,4.0602,4.0603,0,0,0,0,0,0,0,0,4.0358,4.0366,4.0443,4.0445,4.0448,4.05,4.0482,4.0545,4.0519,4.0492,4.0517,4.0516,4.0558,4.0563,4.0578,4.0631,4.0634,4.0602,4.0604,4.0606,4.0607,0,0,0,0,0,0,0,4.0354,4.0363,4.0457,4.0444,4.0447,4.045,4.0458,4.0494,4.0528,4.0494,4.0496,4.0504,4.0559,4.0575,4.058,4.0635,4.0602,4.0605,4.0607,4.0609,4.0724,4.0725,0,0,0,0,0,0,4.0347,4.036,4.0455,4.0459,4.0401,4.0453,4.0462,4.0484,4.0528,4.0534,4.0505,4.0505,4.0569,4.0576,4.0583,4.063,4.0606,4.0609,4.0611,4.0723,4.0724,4.0726,0,0,0,0,0,0,4.0344,4.0355,4.0452,4.041,4.0422,4.0456,4.0481,4.0486,4.0502,4.0536,4.0542,4.0516,4.0569,4.0578,4.0618,4.0633,4.061,4.0614,4.0722,4.0724,4.0725,4.0725,0,0,0,0,0,0,4.034,4.0354,4.0369,4.041,4.0425,4.0486,4.0482,4.0488,4.0509,4.0509,4.0547,4.0553,4.0569,4.0612,4.0621,4.0637,4.0616,4.0721,4.0723,4.0725,4.0723,4.0726,4.0728,0,0,0,0,0,4.0335,4.0364,4.037,4.0381,4.0444,4.0487,4.0495,4.0515,4.051,4.0525,4.0547,4.0552,4.063,4.0616,4.0626,4.0644,4.072,4.0722,4.0724,4.0722,4.0725,4.0728,0,0,0,0,0,0,4.0321,4.037,4.0376,4.042,4.045,4.049,4.0509,4.0518,4.0548,4.0547,4.0569,4.0577,4.0616,4.0634,4.0618,4.0683,4.0675,4.0679,4.067,4.0673,4.0675,4.067,4.0619,0,0,0,0,0,4.0324,4.0356,4.0396,4.043,4.0445,4.0475,4.0494,4.0508,4.0538,4.055,4.0575,4.0604,4.0635,4.0655,4.0685,4.0726,4.0735,4.0743,4.0746,4.0748,4.0751,4.0775,4.078,4.0733,4.0733,4.0733,0,0,4.0328,4.0358,4.0377,4.0428,4.0453,4.0485,4.0485,4.0518,4.0542,4.0555,4.0595,4.0614,4.0648,4.0689,4.0708,4.0705,4.0766,4.075,4.0752,4.0754,4.0778,4.0782,4.0786,4.0734,4.0734,4.0734,0,0,4.0352,4.0379,4.0411,4.0437,4.0475,4.0495,4.0503,4.0543,4.0557,4.0598,4.0609,4.0637,4.069,4.0714,4.0733,4.077,4.0775,4.0779,4.0791,4.0815,4.0818,4.0822,4.0835,4.084,4.0782,4.0782,4.0782,0,4.0352,4.0402,4.0426,4.046,4.0483,4.0499,4.0531,4.0554,4.06,4.0615,4.0611,4.068,4.0703,4.0751,4.076,4.0775,4.0784,4.0774,4.0816,4.082,4.0823,4.0837,4.0842,4.0783,4.0783,4.0783,4.0783,0,4.0401,4.0436,4.0457,4.0504,4.0529,4.0562,4.059,4.0612,4.0624,4.0644,4.0686,4.0715,4.0753,4.0765,4.0776,4.0815,4.0812,4.0812,4.0804,4.0828,4.0841,4.0846,4.0783,4.0783,4.0783,4.0783,0,0,4.0416,4.0478,4.0486,4.0508,4.0553,4.058,4.0614,4.0653,4.0672,4.0703,4.0732,4.0779,4.078,4.0802,4.0815,4.0836,4.0865,4.0834,4.0835,4.0839,4.0911,4.0911,4.0916,4.0869,4.087,4.0871,4.0908,0,4.0446,4.051,4.0534,4.0585,4.0618,4.0635,4.0665,4.0695,4.0715,4.0745,4.0767,4.08,4.0799,4.0812,4.0834,4.0856,4.0879,4.0854,4.0895,4.0897,4.0886,4.0923,4.0922,4.0956,4.0913,4.0914,4.0915,0,4.0489,4.0525,4.058,4.0624,4.0639,4.0665,4.0704,4.0733,4.0768,4.0781,4.0807,4.082,4.0856,4.0847,4.0897,4.0879,4.0898,4.0912,4.0914,4.0918,4.0907,4.0928,4.0967,4.0972,4.0923,4.0922,4.0922,0,4.0496,4.0557,4.0599,4.0618,4.0669,4.0687,4.0709,4.0744,4.0767,4.08,4.0815,4.0852,4.0872,4.0899,4.0922,4.0913,4.097,4.0962,4.0981,4.0981,4.0992,4.0991,4.1034,4.1004,4.1003,4.1003,4.1003,0,4.0527,4.0561,4.0603,4.0629,4.0667,4.0694,4.073,4.0753,4.0784,4.0814,4.083,4.0857,4.0886,4.0916,4.0934,4.0973,4.0981,4.0993,4.0997,4.0992,4.099,4.1003,4.1002,4.1005,4.1004,4.1004,4.1004,0,4.054,4.057,4.0617,4.0663,4.0676,4.0702,4.0741,4.0766,4.0788,4.0826,4.0836,4.087,4.0908,4.0933,4.098,4.0992,4.1035,4.1038,4.1023,4.1025,4.1044,4.1042,4.1097,4.1106,4.1069,4.1069,4.107,0,4.0558,4.0585,4.0635,4.0658,4.0681,4.0716,4.074,4.0768,4.0792,4.0836,4.0856,4.0895,4.0928,4.0987,4.1015,4.1051,4.1056,4.1073,4.1061,4.1056,4.1057,4.1055,4.1058,4.1074,4.1075,4.1075,4.1075,0,4.0587,4.0602,4.0637,4.0679,4.0708,4.0742,4.0775,4.0792,4.0825,4.0852,4.0892,4.0917,4.0968,4.1006,4.1046,4.1067,4.1077,4.1079,4.1085,4.108,4.107,4.1076,4.1028,4.1077,4.1077,4.1077,4.1077,4.1077,4.0604,4.0629,4.067,4.0709,4.0738,4.0769,4.0796,4.0823,4.0858,4.0902,4.0916,4.0957,4.0993,4.1048,4.107,4.1102,4.1101,4.111,4.1112,4.1114,4.1115,4.1066,4.111,4.111,4.111,4.111,4.111,0,4.0634,4.0662,4.0698,4.0746,4.0777,4.0787,4.0824,4.085,4.0887,4.092,4.0954,4.1,4.1038,4.107,4.111,4.1129,4.1135,4.1139,4.1137,4.1142,4.1113,4.1104,4.1134,4.1134,4.1134,4.1134,4.1134,4.1134,4.0654,4.0698,4.0717,4.0776,4.0802,4.0845,4.0866,4.0895,4.0923,4.0975,4.1008,4.103,4.1063,4.1105,4.1141,4.1149,4.1163,4.1166,4.1175,4.1147,4.1144,4.1142,4.1133,4.1168,4.1169,4.1202,4.1202,4.1202]}]]